Sacramento, CA

7:03 AM PDT on September 25, 2016 (GMT -0700)
Sacramento Executive

Weather History for KSAC - September, 2012

Change the Weather History Date:

Saturday, September 15, 2012

  Actual Average Record
Temperature  
Mean Temperature 75 °F -  
Max Temperature 93 °F 88 °F 104 °F (1971)
Min Temperature 56 °F 56 °F 47 °F (1959)
Degree Days  
Heating Degree Days 0    
Month to date heating degree days 0  
Cooling Degree Days 10    
Month to date cooling degree days 134  
Year to date cooling degree days 1135  
Growing Degree Days 24 (Base 50)    
Moisture  
Dew Point 46 °F    
Average Humidity 44    
Maximum Humidity 72    
Minimum Humidity 16    
Precipitation  
Precipitation 0.00 in 0.01 in 0.35 in (1982)
Month to date precipitation T 0.11  
Year to date precipitation 9.89 12.06  
Since 1 July precipitation 0.03  
Sea Level Pressure  
Sea Level Pressure 30.00 in    
Wind  
Wind Speed 3 mph (SSW)    
Max Wind Speed 9 mph    
Max Gust Speed 15 mph    
Visibility 10 miles    
Events      
T = Trace of Precipitation, MM = Missing Value Source: NWS Daily Summary

Daily Weather History Graph

Daily Weather History Graph

Search for Another Location

Airport or City:

Trip Planner

Search our weather history database for the weather conditions in past years. The results will help you decide how hot, cold, wet, or windy it might be!

Date:

Astronomy

Sep. 15, 2012 Rise Set
Actual Time 6:48 AM PDT 7:13 PM PDT
Civil Twilight 6:21 AM PDT 7:39 PM PDT
Nautical Twilight 5:50 AM PDT 8:10 PM PDT
Astronomical Twilight 5:18 AM PDT 8:42 PM PDT
Moon 6:24 AM PDT (9/15) 6:47 PM PDT (9/15)
Length of Visible Light 13h 18m
Length of Day
12h 25m
Waning Crescent, 0% of the Moon is Illuminated
Sep 15
Waning Crescent
Sep 15
New
Sep 22
First Quarter
Sep 29
Full
Oct 8
Last Quarter

Hourly Weather History & Observations

Time (PDT) Temp. Dew Point Humidity Pressure Visibility Wind Dir Wind Speed Gust Speed Precip Events Conditions
12:53 AM 62.6 °F 50.0 °F 63% 29.99 in 10.0 mi South 3.5 mph - N/A   Clear
1:53 AM 61.0 °F 50.0 °F 67% 30.00 in 10.0 mi Calm Calm - N/A   Clear
2:53 AM 60.1 °F 48.9 °F 67% 30.00 in 10.0 mi Calm Calm - N/A   Clear
3:53 AM 60.1 °F 48.0 °F 64% 30.00 in 10.0 mi South 3.5 mph - N/A   Clear
4:53 AM 59.0 °F 48.0 °F 67% 30.01 in 10.0 mi SE 3.5 mph - N/A   Clear
5:53 AM 57.9 °F 48.0 °F 70% 30.01 in 10.0 mi Calm Calm - N/A   Clear
6:53 AM 57.0 °F 48.0 °F 72% 30.02 in 10.0 mi Calm Calm - N/A   Clear
7:53 AM 59.0 °F 48.9 °F 69% 30.04 in 10.0 mi Variable 3.5 mph - N/A   Clear
8:53 AM 62.1 °F 48.9 °F 62% 30.04 in 10.0 mi South 6.9 mph - N/A   Clear
9:53 AM 66.0 °F 50.0 °F 56% 30.06 in 10.0 mi SSE 8.1 mph - N/A   Clear
10:53 AM 70.0 °F 50.0 °F 49% 30.06 in 10.0 mi Variable 3.5 mph - N/A   Clear
11:53 AM 75.0 °F 51.1 °F 43% 30.06 in 10.0 mi SW 4.6 mph - N/A   Clear
12:53 PM 81.0 °F 48.0 °F 31% 30.04 in 10.0 mi Calm Calm - N/A   Clear
1:53 PM 87.1 °F 43.0 °F 21% 30.02 in 10.0 mi Variable 3.5 mph - N/A   Clear
2:53 PM 89.1 °F 46.0 °F 22% 29.99 in 10.0 mi South 4.6 mph - N/A   Clear
3:53 PM 91.9 °F 42.1 °F 18% 29.97 in 10.0 mi South 6.9 mph - N/A   Clear
4:53 PM 91.9 °F 39.9 °F 16% 29.95 in 10.0 mi WSW 8.1 mph - N/A   Clear
5:53 PM 91.0 °F 39.9 °F 17% 29.94 in 10.0 mi SW 4.6 mph - N/A   Clear
6:53 PM 84.9 °F 41.0 °F 21% 29.93 in 10.0 mi SSW 4.6 mph - N/A   Clear
7:53 PM 79.0 °F 43.0 °F 28% 29.94 in 10.0 mi SSW 4.6 mph - N/A   Clear
8:53 PM 73.9 °F 46.0 °F 37% 29.95 in 10.0 mi SSW 5.8 mph - N/A   Clear
9:53 PM 70.0 °F 45.0 °F 41% 29.96 in 10.0 mi South 3.5 mph - N/A   Clear
10:53 PM 66.9 °F 46.0 °F 47% 29.96 in 10.0 mi SW 3.5 mph - N/A   Clear
11:53 PM 64.0 °F 46.0 °F 52% 29.96 in 10.0 mi SSW 4.6 mph - N/A   Clear